Location: Dana
(41.8364°N, 106.7042°W)
Time: 14:21:52
(UTC+00:00)

Tiros 1 despin weight - Pass Details

Date: 19 May 2026
Orbit: 554 x 591 km, 48.2° (Epoch: 6 June)

Event Time Altitude Azimuth Distance (km) Brightness Sun altitude
Rises 17:09:40 0° 290° (WNW) 2,733 ? 57.5°
Reaches altitude 10° 17:12:13 10° 276° (W) 1,833 ? 57.9°
Maximum altitude 17:15:36 24° 222° (SW) 1,168 ? 58.4°
Drops below altitude 10° 17:18:58 10° 168° (SSE) 1,823 ? 58.9°
Sets 17:21:30 0° 154° (SSE) 2,716 ? 59.3°
